Regional Weather Roundup
Issued by NWS

Home | Current Version | Previous Version | Graphics & Text | Print | Product List | Glossary On
Versions: 1 2 3 4 5 6 7 8 9 10 11 12 13 14 15 16 17 18 19 20 21 22 23 24 25 26 27 28 29 30 31 32 33 34 35 36 37 38 39 40 41 42 43 44 45 46 47 48 49 50
053
ASUS45 KSLC 270010
RWRUT

UTAH REGIONAL WEATHER ROUNDUP
NATIONAL WEATHER SERVICE SALT LAKE CITY UT
600 PM MDT TUE JUL 26 2016

UTZ001>011-023>025-270100-

NORTHERN UTAH

CITY           SKY/WX    TMP DP  RH WIND       PRES   REMARKS
BRIGHAM CITY     N/A     99  15   4 SW10      29.98F HX  92
HILL AFB       SUNNY     97  16   5 W9        30.05F HX  90
LOGAN          SUNNY     98  31   9 S14       29.98F HX  92
OGDEN          SUNNY     98  19   6 W9        30.01F HX  91
PROVO AIRPORT  MOSUNNY   99  48  18 NW12G17   30.00R HX  95
SALT LAKE CITY MOSUNNY  101  30   8 N16       29.98S HX  94
VERNAL         CLOUDY    85  39  19 W8        30.12F
WENDOVER       SUNNY    102  36  10 W22       29.98R HX  96
HEBER CITY     PTSUNNY   95  32  11 NW3       30.08F HX  90

$$

UTZ012>022-026-027-270100-

SOUTHERN/CENTRAL UTAH

CITY           SKY/WX    TMP DP  RH WIND       PRES   REMARKS
BLANDING       MOSUNNY   90  39  16 W6        30.22S
BRYCE CANYON   MOSUNNY   81  36  19 E12       30.33F
CEDAR CITY     MOSUNNY   91  41  17 S17G23    30.11S
DELTA          SUNNY     99  25   7 W3G16     30.01F HX  92
MILFORD        MOSUNNY  100  29   8 VRB3      30.02F HX  93
MOAB/CYNLANDS  MOSUNNY  100  32   9 CALM      29.98F HX  94
PRICE          PTSUNNY   90  33  13 NE7       30.12S
ST GEORGE      MOCLDY   106  45  12 W9        29.89S HX 101

$$

REGIONAL REPORTS     COLORADO/ARIZONA

CITY           SKY/WX    TMP DP  RH WIND       PRES   REMARKS
CRAIG, CO      CLOUDY    76  42  29 SE8       30.25F
GRAND JUNCTION PTSUNNY   87  45  23 E17G26    30.09R
RIFLE          CLOUDY    87  42  20 E12       30.15S
MONTROSE       CLOUDY    89  39  17 W10       30.17S
CORTEZ         CLOUDY    91  39  16 N12G17    30.15S
PAGE, AZ       PTSUNNY  100  36  11 NE8       30.01F HX  94
GRAND CANYON   PTSUNNY   85  45  24 S10       30.25S
KINGMAN        MOSUNNY  102  43  13 W9        29.93F HX  97
FLAGSTAFF      PTSUNNY   77  53  43 CALM      30.28F

$$

REGIONAL REPORTS    NEVADA/IDAHO/WYOMING

CITY           SKY/WX    TMP DP  RH WIND       PRES   REMARKS
LAS VEGAS, NV  MOSUNNY  110  35   7 CALM      29.76F HX 103
ELY            SUNNY     94  15   5 S10G20    30.15F
ELKO           SUNNY     97  13   4 W13G26    30.08F HX  90
POCATELLO, ID  SUNNY     96  23   7 W18       30.01F HX  90
BURLEY         SUNNY     92  34  13 W12G21    29.99F
EVANSTON, WY   SUNNY     87  15   7 W22       30.25R
ROCK SPRINGS   CLOUDY    82  30  15 S6        30.21
KEMMERER         N/A     86  19   8 W20G31    30.25S

$$




USA.gov is the U.S. government's official web portal to all federal, state and local government web resources and services.